Home   Weather   Rothesay   Past weeks

Flag for Canada Past Weather in Rothesay, New Brunswick, Canada — Yesterday and Last 2 Weeks

Now
27 °F

Partly sunny.


Feels Like: 27 °F
Forecast: 15 / 28 °F
Wind: 2 mph from North

Location: Saint John

Current Time: Dec 5, 2016 at 2:44:48 pm

Latest Report: Dec 5, 2016 at 2:00 pm


Visibility: 15 mi

Pressure: 30.01 "Hg

Humidity: 64%

Dew Point: 16 °F

Location of RothesayLocation

Past Weather in Rothesay — Graph

°F

Rothesay Temperature Yesterday

Maximum temperature yesterday: 30 °F (at 12:00 am)
Minimum temperature yesterday: 21 °F (at 10:00 pm)
Average temperature yesterday: 27 °F

High & Low Weather Summary for the Past Weeks

 TemperatureHumidityPressure
High52 °F (Nov 20, 4:00 pm)100% (Nov 20, 1:00 pm)30.40 "Hg (Nov 20, 1:00 pm)
Low12 °F (Dec 5, 7:00 am)53% (Nov 28, 1:00 pm)29.28 "Hg (Dec 1, 6:00 pm)
Average34 °F87%29.87 "Hg
* Reported Nov 20 1:00 pm — Dec 5 1:00 pm, Rothesay, Weather by CustomWeather, © 2016

Note: Actual official high and low records may vary slightly from our data, if they occured in-between our weather recording intervals... More about our weather records

Advertising

Rothesay Weather History for the Previous 24 Hours

Scroll right to see more
 ConditionsComfort  
Time TempWeatherWind HumidityBarometerVisibility
1:00 pm
Mon, Dec 5
25 °FPartly sunny.3 mph74%30.01 "Hg15 mi
12:00 pm25 °FPartly sunny.3 mph69%30.04 "Hg15 mi
11:00 am23 °FPartly sunny.5 mph74%30.08 "Hg15 mi
10:00 am21 °FPartly sunny.5 mph86%30.09 "Hg15 mi
9:00 am19 °FPartly sunny.6 mph93%30.10 "Hg15 mi
8:00 am14 °FScattered clouds.No wind92%30.09 "Hg15 mi
7:00 am12 °FClear.No wind92%30.08 "Hg15 mi
6:00 am14 °FClear.No wind92%30.08 "Hg15 mi
5:00 am16 °FClear.3 mph100%30.09 "Hg15 mi
4:00 am16 °FClear.3 mph93%30.10 "Hg15 mi
3:00 am18 °FClear.2 mph86%30.10 "Hg15 mi
2:00 am18 °FPassing clouds.5 mph93%30.11 "Hg15 mi
1:00 am18 °FPassing clouds.No wind93%30.11 "Hg15 mi
12:00 am19 °FPassing clouds.8 mph86%30.11 "Hg15 mi
11:00 pm
Sun, Dec 4
21 °FPassing clouds.8 mph86%30.11 "Hg15 mi
10:00 pm21 °FPassing clouds.6 mph86%30.11 "Hg15 mi
9:00 pm23 °FPassing clouds.10 mph80%30.11 "Hg15 mi
8:00 pm23 °FPassing clouds.12 mph80%30.11 "Hg15 mi
7:00 pm27 °FPassing clouds.15 mph69%30.09 "Hg15 mi
6:00 pm27 °FPassing clouds.10 mph69%30.08 "Hg15 mi
5:00 pm27 °FPassing clouds.17 mph69%30.06 "Hg15 mi
4:00 pm27 °FPartly sunny.14 mph69%30.05 "Hg15 mi
3:00 pm28 °FPartly sunny.16 mph69%30.03 "Hg15 mi
2:00 pm28 °FOvercast.9 mph69%30.02 "Hg15 mi
Weather by CustomWeather, © 2016

See weather overviewHow to use our weather pages